Regional Weather Roundup
Issued by NWS Upton, NY

Current Version | Previous Version | Graphics & Text | Print | Product List | Glossary Off
Versions: 1 2 3 4 5 6 7 8 9 10 11 12 13 14 15 16 17 18 19 20 21 22 23 24 25 26 27

000
ASUS41 KOKX 301705
RWROKX

REGIONAL WEATHER ROUNDUP
NATIONAL WEATHER SERVICE NEW YORK NY
100 PM EDT TUE AUG 30 2016

NOTE: "FAIR" INDICATES FEW OR NO CLOUDS BELOW 12,000 FEET WITH NO
SIGNIFICANT WEATHER AND/OR OBSTRUCTIONS TO VISIBILITY.

NYZ071-072-176-178-NJZ106-104-301800-
NEW YORK CITY METRO AREA

CITY           SKY/WX    TMP DP  RH WIND       PRES   REMARKS
Central Park   CLOUDY    79  61  53 CALM      30.16F
LaGuardia APRT MOSUNNY   82  62  50 NE8       30.12F
Kennedy INTL   MOSUNNY   82  64  54 SE8       30.15F
Newark/Liberty PTSUNNY   82  61  48 S6        30.13F
Bronx Bot Gard   N/A     79  59  50 SE5       30.14F
Wall St Helipt SUNNY     81  64  57 SW9       30.14F
Teterboro      PTSUNNY   83  59  44 SW6       30.12F
$$

NYZ177-179-078>081-301800-
LONG ISLAND NEW YORK

CITY           SKY/WX    TMP DP  RH WIND       PRES   REMARKS
Farmingdale    MOSUNNY   81  61  50 VRB6      30.14F
MacArthur/ISP  MOSUNNY   80  62  54 S8        30.13F
Shirley        MOSUNNY   78  62  57 S10       30.14F
Riverhead      NOT AVBL
Westhampton    PTSUNNY   79  61  53 E7        30.16F
Southampton      N/A     77  64  65 S6        30.11S
Bridgehampton    N/A     79  66  65 CALM      30.14S
East Hampton   PTSUNNY   76  62  61 SE8       30.14S
Montauk          N/A     77  62  59 VRB5      30.16F
$$

NYZ052-065-067-301800-
HUDSON VALLEY

CITY           SKY/WX    TMP DP  RH WIND       PRES   REMARKS
White Plains   MOSUNNY   79  60  52 CALM      30.14F
Newburgh       MOSUNNY   77  63  61 W6        30.16F
Montgomery     MOSUNNY   80  63  55 S9        30.14F
Poughkeepsie   SUNNY     78  57  48 VRB7      30.13F
Albany         MOSUNNY   76  56  49 W3        30.13F
$$

NJZ001-105-106-008-010-013-015-019>022-104-301800-
NEW JERSEY

CITY           SKY/WX    TMP DP  RH WIND       PRES   REMARKS
Newark/Liberty PTSUNNY   82  61  48 S6        30.13F
Teterboro      PTSUNNY   83  59  44 SW6       30.12F
Caldwell       PTSUNNY   82  60  47 S5        30.14F
Morristown     PTSUNNY   79  61  53 W5        30.14F
Somerville     MOSUNNY   81  60  48 CALM      30.11F
Linden         FAIR      82  61  49 SE7       30.15F
Sussex         MOSUNNY   79  62  56 VRB3      30.15F
Abdover          N/A     80  61  52 VRB7      30.15F
Trenton        MOSUNNY   82  62  50 NW3       30.12F
Millville      MOSUNNY   86  69  56 VRB3      30.11S HX  90
Atlantic City  PTSUNNY   84  68  58 E12       30.12S
Wrightstown    SUNNY     84  64  51 VRB3      30.09F
Toms River     MOSUNNY   84  66  54 E5        30.13F
Belmar         SUNNY     81  62  52 E8        30.15F
$$

PAZ047>061-062-071-301800-
EASTERN PENNSYLVANIA

CITY           SKY/WX    TMP DP  RH WIND       PRES   REMARKS
Philadelphia   MOSUNNY   88  61  40 VRB5      30.12F
Allentown      SUNNY     81  60  48 VRB3      30.14F
Scranton       SUNNY     78  56  46 SW6       30.16F
$$

CTZ002-004>006-009-010-012-RIZ004-006-007-MAZ004-011-015-301800-
SOUTHERN NEW ENGLAND
 IN CT

CITY           SKY/WX    TMP DP  RH WIND       PRES   REMARKS
Bradley INTL   PTSUNNY   79  56  45 VRB5      30.13F
Hartford       MOSUNNY   82  57  42 VRB3      30.12F
Danbury        SUNNY     77  58  51 VRB7      30.16F
Wtrbury/Oxford PTSUNNY   77  55  47 W6        30.19F
Bridgeport     SUNNY     78  60  53 S6        30.14F
Meriden        MOSUNNY   81  56  42 VRB7      30.14F
New Haven      SUNNY     77  60  55 S9        30.15F
Chester        FAIR      77  59  53 VRB6      30.15S
Groton         MOSUNNY   76  61  59 S7        30.14F
Wilimantic     MOSUNNY   78  55  44 MISG      30.14F

 IN RI

CITY           SKY/WX    TMP DP  RH WIND       PRES   REMARKS
Providence     PTSUNNY   80  57  45 S9        30.13F
Block Island     N/A     77  62  59 SW6       30.16S
Westerly       SUNNY     76  57  51 S9        30.15F
 IN MA

CITY           SKY/WX    TMP DP  RH WIND       PRES   REMARKS
Boston         MOSUNNY   76  55  48 SE15      30.12F
Worcester      MOSUNNY   73  52  47 W12G17    30.15F
Westfield      SUNNY     78  56  46 SE8       30.12F
Provincetown   SUNNY     74  63  68 N7        30.14F
Nantucket      SUNNY     73  57  57 S8        30.14S
$$

ANZ330-335-338-340-345-350-353-355-301800-
COASTAL MARINE OBSERVATIONS


STATION/POSITION TIME  SKY/WX   TEMP    WIND        PRES    VSBY  WAVE
                                AIR SEA DIR/SP/G                  HT/PER
                 (UTC)          (F)     (DEG/KT/KT) (MB)    (MI)  (FT/S)
NY HARB ENTRANCE 1550            75 77  100/  8/ 10 1020.8          4/13
20S FIRE ISLAND  1550            75 76  110/  6/  8 1020.6          5/12
GREAT SOUTH BAY  1600            74 80  130/  8/  8   N/A
23 SSW MONTAUK P 1550            72 77   50/  4/  4 1021.6          4/11
15 E BARNEGAT LI 1600               77                N/A           5/12
HUDSON CANYON    1550            77 78              1020.2          6/12
KINGS POINT      1600            74 76              1020.7
EXECUTION ROCKS  1600            73      40/  8/ 10   N/A
CENTRAL LI SOUND 1600            71 75   80/  4/  6   N/A           0
EASTERN LI SOUND 1600            71 70  150/  4/  6   N/A
ROBBINS REEF     1600            74     180/ 12/ 13 1020.3
$$


>>>>>>>>>>>>>>>>>>>>>>>>>>>> KEY <<<<<<<<<<<<<<<<<<<<<<<<<<<
>                                                          <
>     SKY/WX - Sky Condition/Present Weather               <
>     TMP    - Temperature in Fahrenheit                   <
>     DP     - Dew Point in Fahrenheit                     <
>     RH     - Relative Humidity in Percent                <
>     WIND   - Direction (from) and Speed in MPH           <
>     PRES   - Mean Sea Level Pressure (inches of Hg)      <
>     WCI    - Wind Chill Index                            <
>     VSB    - VISIBILITY IN MILES                         <
>     HX     - HEAT INDEX                                  <
>     TC     - TEMPERATURE IN CELSIUS                      <
>     VRB    - VARIABLE WIND DIRECTION                     <
>                                                          <
>>>>>>>>>>>>>>>>>>>>>>>>>>>> KEY <<<<<<<<<<<<<<<<<<<<<<<<<<<




USA.gov is the U.S. government's official web portal to all federal, state and local government web resources and services.